User: anonymous   Login
Location: Simi Valley
(34.2690°N, 118.7810°W)
Time: 01:40:21
(UTC-07:00)
Language:

Lacrosse 5 rocket - Orbit

View from above orbital plane
View from above orbital plane
View from above satellite
View from above satellite

Ground track
Ground track

The orbit data is extracted from the following two-line orbital elements,

1 28647U 05016B   16271.15832476 0.00001300  00000-0  75789-4 0    09
2 28647  56.9940   3.1622 0130421 209.0324 150.9675 15.04551243    00
Epoch (UTC): 27 September 2016 03:47:59
Eccentricity: 0.0130421
inclination: 56.9940°
perigee height: 462 km
apogee height: 643 km
right ascension of ascending node: 3.1622°
argument of perigee: 209.0324°
revolutions per day: 15.04551243
mean anomaly at epoch: 150.9675°
orbit number at epoch: 0

The dashed part of the orbit path shows where the satellite is in the earth's shadow,  

DLR